FENGYUN 1C DEB, 31758

Orbit data source: Space-Track

FENGYUN 1C DEB, 31758 is space debris in SSO originally from a launch on Mon, 10 May 1999 UTC launched from the Taiyaun Space Center, China (TSC). Fengyun 1C debris stems from the Chinese weather satellite Fengyun-1C, which was intentionally destroyed by a Chinese anti-satellite missile in 2007. This event dramatically increased the amount of space debris, with thousands of trackable fragments posing hazards to satellites and human spaceflight. The Fengyun 1C debris cloud has become a focal point in discussions about space sustainability and the need for international regulations to prevent the creation of new debris.

Loading next visibility...
Identifier
31758, 1999-025CFH
Orbit
SSO
Country
Flag of CNCN / PRC
Related business
Manufacturer
Unknown
Mission
Spacecraft
Bus & Motor
Unknown
Mass
Unknown
Launch date (UTC)
1999-05-10 (27 years ago)
Launch vehicle
Unknown
Launch site
Taiyaun Space Center, China (TSC)
Object type
Payload
Rocket body
Debris
Shape & HBR
Unknown shape, 0.1 m
Radar Cross Section
Small (<0.1 m²)

Expand to show TLE details & history
Last TLE update: 11 hours ago

TLE from 11 hours ago
0 FENGYUN 1C DEB
1 31758U 99025CFH 26255.96064709  .00011068  00000-0  16900-2 0  9994
2 31758  98.0594 256.9508 0292686 329.7282  28.7279 14.49035451981630
Epoch: 2026-09-12T23:03Z
TLE epoch observation values (Epoch: 2026-09-12T23:03:19.908Z)
Latitude
-0.00008°
Longitude
-80.84429°
Altitude
550.798 km
Speed
7.682 km/s
True Right ascension
17h 07m 48s
True Declination
0° 00' 00"
Sunlit
Object was in daylight at epoch
Visualization orbit readout
Latitude
Unknown
Longitude
Unknown
Altitude
Unknown
Speed
Unknown
Apparent Right ascension
Unknown
Apparent Declination
Unknown
Sunlit
N/A
Visualization observer readout
Local Sidereal Time
02:29:14
Azimuth
Unknown
Elevation
Unknown
Doppler factor
Unknown
Orbital elements
Apogee altitude
933.811 km
Perigee altitude
517.961 km
Semi-major axis
7,104.023 km
Eccentricity
0.02927
Inclination
98.0594°
RAAN
256.9508°
Arg. of periapsis
329.7282°
True anomaly
30.39309°
Mean anomaly
28.7279°
Eccentric anomaly
29.55508°
Mean motion
3.62482 °/min
Orbital period
99.32 mins
BSTAR
0.00169
Loading maneuver chart data...
Computing Atmospheric mass density...

Documentation

Showing up to 5 results
|